Weather Roundup
Issued by NWS

Home | Current Version | Previous Version | Graphics & Text | Print | Product List | Glossary Off
Versions: 1 2 3 4 5 6 7 8 9 10 11 12 13 14 15 16 17 18 19 20 21 22 23 24 25 26 27 28 29 30 31 32 33 34 35 36 37 38 39 40 41 42 43 44 45 46 47 48 49 50

601
NZUS93 KARX 211810
HRRWXR

CURRENT HOURLY OBSERVATIONS ACROSS
MUCH OF THE UPPER MISSISSIPPI VALLEY
NATIONAL WEATHER SERVICE LA CROSSE WI
100 PM CDT THU MAY 21 2015


...SOUTHEAST MINNESOTA...


CITY           SKY/WX    TMP DP  RH WIND       PRES   REMARKS
ROCHESTER      SUNNY     71  40  32 W17G29    30.03F
ROCHESTER/MAYO FAIR      67  37  32 W15G24    30.02F
WINONA         SUNNY     72  36  26 W12G20    29.99F
AUSTIN         SUNNY     68  37  32 W18G24    30.04F
ALBERT LEA     SUNNY     70  34  26 NW18G26   30.05F
DODGE CENTER   SUNNY     68  36  30 W18       30.03F
PRESTON        SUNNY     68  39  34 W16G22    30.04S
OWATONNA       SUNNY     68  32  26 NW18G28   30.04S
FARIBAULT      SUNNY     68  36  30 W20       30.04F
$$

...ELSEWHERE IN MINNESOTA...


CITY           SKY/WX    TMP DP  RH WIND       PRES   REMARKS
MINNEAPOLIS    SUNNY     70  36  28 NW14G25   30.02S
INTNL FALLS    SUNNY     59  31  34 NW8       30.08S
DULUTH         SUNNY     61  35  37 SE7       30.01F
RED WING       SUNNY     70  36  28 W10G20    30.00S
REDWOOD FALLS  SUNNY     68  31  25 NW21G30   30.09S
MANKATO        SUNNY     68  30  24 NW21      30.05F
WORTHINGTON    SUNNY     70  36  28 NW23G32   30.12F
FAIRMONT       SUNNY     72  34  25 NW17G26   30.08F
$$

...SOUTHWEST WISCONSIN...


CITY           SKY/WX    TMP DP  RH WIND       PRES   REMARKS
LA CROSSE      MOSUNNY   73  38  27 W9        30.00F
PRAIRIE DU CHI SUNNY     68  36  30 SW6G18    30.04F
BOSCOBEL       SUNNY     71  39  31 VRB6      30.04F
LONE ROCK      SUNNY     69  40  34 W12G18    30.03F
PLATTEVILLE    SUNNY     64  42  45 W7G18     30.07S
FORT MC COY    SUNNY     69  35  28 W9G18     30.01F
CAMP DOUGLAS   MOSUNNY   70  36  28 SW10G21   29.98F
VIROQUA        FAIR      68  38  34 W10       30.03F
WIS DELLS      SUNNY     67  35  31 W7G16     30.01F
$$

...ELSEWHERE IN WISCONSIN...


CITY           SKY/WX    TMP DP  RH WIND       PRES   REMARKS
MILWAUKEE      MOSUNNY   65  34  31 W9        30.00F
MADISON        MOSUNNY   66  36  32 W8G21     30.02F
GREEN BAY      MOSUNNY   72  36  26 W16G24    29.92F
EAU CLAIRE     SUNNY     70  41  34 W13G22    29.97F
BLACK RVR FLS  FAIR      72  35  25 W13G18    29.98F
MEDFORD        MOSUNNY   67  38  33 W12       29.95F
WAUSAU         NOT AVBL
WIS RAPIDS     MOSUNNY   72  33  24 W12G20    29.97F
MARSHFIELD     MOSUNNY   70  36  28 W15G22    29.97F
RICE LAKE      MOSUNNY   68  36  30 N8        29.99S
$$

...NORTHEAST IOWA...


CITY           SKY/WX    TMP DP  RH WIND       PRES   REMARKS
DECORAH        SUNNY     68  39  34 W10G17    30.04F
MASON CITY     SUNNY     71  40  32 W14G26    30.08F
CHARLES CITY   SUNNY     70  41  35 SW14G21   30.07F
OELWEIN        SUNNY     64  48  55 W13       30.09S
$$

...ELSEWHERE IN IOWA...


CITY           SKY/WX    TMP DP  RH WIND       PRES   REMARKS
DES MOINES     MOSUNNY   71  43  36 NW14G24   30.14F
IOWA CITY      SUNNY     64  44  48 W13       30.13F
FORT DODGE     SUNNY     68  48  49 NW15G24   30.13F
$$

...NORTHERN ILLINOIS...


CITY           SKY/WX    TMP DP  RH WIND       PRES   REMARKS
CHICAGO-OHARE  MOSUNNY   62  35  36 W16G23    30.05F
CHICAGO-MIDWAY MOSUNNY   64  37  36 NW15G21   30.06F
MOLINE         SUNNY     65  40  39 W15G22    30.11F
ROCKFORD       MOSUNNY   64  40  41 W14       30.08F
PEORIA         SUNNY     64  39  39 W12G20    30.14F
$$

NOTE: "FAIR" INDICATES FEW OR NO CLOUDS BELOW 12,000 FEET WITH NO
SIGNIFICANT WEATHER AND/OR OBSTRUCTIONS TO VISIBILITY. WIND
SPEEDS ARE IN MILES-PER-HOUR.



USA.gov is the U.S. government's official web portal to all federal, state and local government web resources and services.